This demonstration page uses our WeatherBlox Daily Observations layout. Learn more.

Left ArrowRight Arrow

Hourly Observations for August 5, 2020

Temp ( °F °C ) Dew Point ( °F °C ) Humidity (%) Winds ( mph kmh ) Pressure ( in mb ) Visibility ( mi km ) Precip ( " mm )
12:53 am 00:53 Clear 62 16.7 53 11.7 73 73 SSE 10 17 30.04 1017 10 16 0.00 0.00
1:53 am 01:53 Clear 60 15.6 53 11.7 78 78 S 8 13 30.03 1017 10 16 0.00 0.00
2:53 am 02:53 Partly Cloudy 59 15 54 12.2 83 83 SE 6 9 30.04 1017 10 16 0.00 0.00
3:53 am 03:53 Mostly Clear 60 15.6 53 11.7 78 78 SSE 9 15 30.02 1017 10 16 0.00 0.00
4:53 am 04:53 Partly Cloudy 59 15 54 12.2 83 83 S 9 15 30.02 1017 10 16 0.00 0.00
5:53 am 05:53 Mostly Clear 59 15 53 11.7 81 81 S 7 11 30.04 1017 10 16 0.00 0.00
6:53 am 06:53 Sunny 59 15 53 11.7 81 81 S 9 15 30.03 1017 10 16 0.00 0.00
7:53 am 07:53 Sunny 60 15.6 53 11.7 78 78 S 10 17 30.04 1017 10 16 0.00 0.00
8:53 am 08:53 Sunny 64 17.8 55 12.8 73 73 S 9 15 30.04 1017 10 16 0.00 0.00
9:53 am 09:53 Sunny 68 20 56 13.3 65 65 SSW 10 17 30.03 1017 10 16 0.00 0.00
10:53 am 10:53 Sunny 71 21.7 58 14.4 63 63 SSW 13 20 30.02 1017 10 16 0.00 0.00
11:53 am 11:53 Sunny 73 22.8 61 16.1 66 66 SSW 10 17 30.01 1016 10 16 0.00 0.00
12:53 pm 12:53 Sunny 77 25 63 17.2 62 62 S 9 15 29.99 1016 10 16 0.00 0.00
1:53 pm 13:53 Sunny 79 26.1 64 17.8 60 60 S 9 15 29.98 1015 10 16 0.00 0.00
2:53 pm 14:53 Sunny 79 26.1 64 17.8 60 60 SSW 8 13 29.97 1015 10 16 0.00 0.00
3:53 pm 15:53 Sunny 81 27.2 65 18.3 58 58 S 12 19 29.95 1014 10 16 0.00 0.00
4:53 pm 16:53 Mostly Sunny 82 27.8 66 18.9 58 58 S 10 17 29.94 1014 10 16 0.00 0.00
5:53 pm 17:53 Mostly Sunny 82 27.8 65 18.3 56 56 SSE 10 17 29.92 1013 10 16 0.00 0.00
6:53 pm 18:53 Sunny 80 26.7 65 18.3 60 60 SSE 9 15 29.92 1013 10 16 0.00 0.00
7:53 pm 19:53 Sunny 78 25.6 67 19.4 69 69 SE 9 15 29.92 1013 10 16 0.00 0.00
8:53 pm 20:53 Clear 75 23.9 66 18.9 74 74 SE 8 13 29.93 1014 10 16 0.00 0.00
9:53 pm 21:53 Clear 73 22.8 66 18.9 79 79 SE 7 11 29.95 1014 10 16 0.00 0.00
10:53 pm 22:53 Clear 73 22.8 65 18.3 76 76 SE 10 17 29.95 1014 10 16 0.00 0.00
11:53 pm 23:53 Clear 71 21.7 65 18.3 81 81 SE 10 17 29.94 1014 10 16 0.00 0.00

Powered by AerisWeather